Flag for Brazil Weather past 2 weeks in Manaus, Amazonas, Brazil

Now
81 °F

Passing clouds.


Feels Like: 86 °F
Forecast: 76 / 93 °F
Wind: 3 mph from Southeast

Location: Manaus Aeroporto

Current Time: Jul 31, 2014 at 9:03:39 PM

Latest Report: Jul 31, 2014 at 8:00 PM


Visibility: N/A

Pressure: 29.89 "Hg

Humidity: 84%

Dew point: 75 °F

Location of ManausLocation

Historic Weather in Manaus — Graph

°F

Manaus temperature yesterday

Maximum temperature yesterday: 88 °F (at 2:00 PM)
Minimum temperature yesterday: 77 °F (at 12:00 AM)
Average temperature yesterday: 80 °F

Past Weeks' High & Low Weather Summary

 TemperatureHumidityPressure
High91 °F (Jul 17, 2:00 PM)100% (Jul 28, 1:00 PM)30.07 "Hg (Jul 28, 1:00 PM)
Low39 °F (Jul 28, 1:00 PM)52% (Jul 20, 3:00 PM)29.83 "Hg (Jul 21, 4:00 PM)
Average80 °F80%29.95 "Hg
* Reported Jul 16 8:00 PM — Jul 31 8:00 PM, Manaus, Weather by CustomWeather, © 2014

Note: Actual official high and low records may vary slightly from our data, if they occured in-between our weather recording intervals... More about our weather records

Advertising

Manaus weather history for previous 24 hours

 ConditionsComfort  
Time TempWeatherWind HumidityBarometerVisibility
8:00 PM
Jul 31
81 °FPassing clouds.3 mph84%29.89 "HgN/A
7:00 PM81 °FPassing clouds.5 mph79%29.86 "HgN/A
6:00 PM82 °FScattered clouds.3 mph70%29.86 "HgN/A
5:00 PM84 °FBroken clouds.5 mph70%29.86 "HgN/A
4:00 PM82 °FScattered clouds.3 mph79%29.86 "HgN/A
3:00 PM84 °FBroken clouds.2 mph70%29.89 "HgN/A
2:00 PM82 °FScattered clouds.6 mph70%29.89 "HgN/A
1:00 PM90 °FPartly sunny.3 mph55%29.92 "HgN/A
11:00 AM88 °FPassing clouds.5 mph62%29.98 "HgN/A
10:00 AM84 °FSunny.6 mph66%29.98 "Hg10 mi
9:00 AM84 °FSunny.3 mph70%29.98 "Hg10 mi
8:00 AM82 °FSunny.5 mph70%29.98 "Hg10 mi
7:00 AM79 °FSunny.5 mph79%29.95 "Hg10 mi
6:00 AM75 °FPassing clouds.3 mph89%29.95 "HgN/A
5:00 AM77 °FPassing clouds.5 mph83%29.92 "HgN/A
4:00 AM77 °FClear.5 mph83%29.92 "Hg10 mi
3:00 AM77 °FClear.5 mph83%29.92 "Hg10 mi
2:00 AM77 °FClear.3 mph89%29.92 "Hg10 mi
1:00 AM79 °FClear.2 mph89%29.95 "Hg10 mi
12:00 AM79 °FClear.3 mph89%29.95 "Hg10 mi
11:00 PM
Jul 30
77 °FClear.No wind83%29.95 "Hg10 mi
10:00 PM77 °FClear.2 mph83%29.95 "Hg10 mi
9:00 PM77 °FClear.No wind89%29.95 "Hg10 mi
Weather by CustomWeather, © 2014

See weather overviewHow to use our weather pages